KC7NGC-B Weather Reports


time (UTC)temp
C
wind
direction
speed
KPH
gust
KPH
rain 1hr
cm
rain 24hr
cm
rain mn
cm
humidity
%
barometer
mb
20260508004636 25 57 3.2 4.8 0.00 0.00 0.00 23 1014.1
20260508003634 25 219 1.6 3.2 0.00 0.00 0.00 23 1014.2
20260508002651 25 242 4.8 6.4 0.00 0.00 0.00 24 1014.4
20260508001628 24 200 4.8 6.4 0.00 0.00 0.00 24 1014.4
20260508000624 24 188 8.0 9.7 0.00 0.00 0.00 25 1014.4
20260507235619 24 261 4.8 8.0 0.00 0.00 0.00 24 1014.5
20260507234635 24 353 1.6 4.8 0.00 0.00 0.00 24 1014.6
20260507233639 23 193 1.6 6.4 0.00 0.00 0.00 24 1014.8
20260507232634 23 83 1.6 3.2 0.00 0.00 0.00 25 1014.7
20260507231632 24 92 4.8 8.0 0.00 0.00 0.00 25 1014.8
20260507230629 24 199 4.8 8.0 0.00 0.00 0.00 25 1015.0
20260507225629 24 262 3.2 8.0 0.00 0.00 0.00 24 1015.0
20260507224621 25 192 4.8 6.4 0.00 0.00 0.00 25 1015.2
20260507223701 24 75 4.8 9.7 0.00 0.00 0.00 26 1015.3
20260507222618 23 210 3.2 6.4 0.00 0.00 0.00 25 1015.5
20260507221719 23 195 4.8 6.4 0.00 0.00 0.00 26 1015.7
20260507220637 23 171 6.4 9.7 0.00 0.00 0.00 25 1015.8
20260507215630 23 172 9.7 11.3 0.00 0.00 0.00 25 1015.8
20260507214629 23 230 4.8 8.0 0.00 0.00 0.00 27 1016.0
20260507213628 23 183 12.9 17.7 0.00 0.00 0.00 27 1016.2
20260507212646 23 195 8.0 12.9 0.00 0.00 0.00 28 1016.2
20260507211625 22 323 8.0 9.7 0.00 0.00 0.00 27 1016.3
20260507210619 22 188 4.8 8.0 0.00 0.00 0.00 27 1016.4
20260507205620 22 197 6.4 8.0 0.00 0.00 0.00 30 1016.4
20260507204635 22 185 11.3 19.3 0.00 0.00 0.00 30 1016.7
20260507203633 22 189 12.9 17.7 0.00 0.00 0.00 29 1017.0
20260507202633 22 193 8.0 14.5 0.00 0.00 0.00 31 1016.8
20260507201629 21 151 6.4 8.0 0.00 0.00 0.00 31 1016.9
20260507200651 22 180 11.3 17.7 0.00 0.00 0.00 28 1016.9
20260507195625 21 189 8.0 14.5 0.00 0.00 0.00 34 1016.9
20260507194621 21 195 11.3 14.5 0.00 0.00 0.00 33 1017.2
20260507193625 21 181 6.4 14.5 0.00 0.00 0.00 33 1017.0
20260507192622 21 171 12.9 17.7 0.00 0.00 0.00 34 1017.0
20260507191636 21 186 11.3 17.7 0.00 0.00 0.00 34 1017.3
20260507190639 20 180 12.9 24.1 0.00 0.00 0.00 35 1017.1
20260507185638 20 188 11.3 19.3 0.00 0.00 0.00 37 1017.2
20260507184650 20 228 8.0 16.1 0.00 0.00 0.00 37 1017.4
20260507183631 20 180 12.9 20.9 0.00 0.00 0.00 37 1017.3
20260507182625 20 215 8.0 16.1 0.00 0.00 0.00 40 1017.5
20260507181623 19 177 6.4 8.0 0.00 0.00 0.00 43 1017.4
20260507180625 19 184 12.9 17.7 0.00 0.00 0.00 42 1017.5
20260507175622 18 173 8.0 12.9 0.00 0.00 0.00 42 1017.6
20260507174634 19 198 6.4 9.7 0.00 0.00 0.00 44 1017.5
20260507173639 18 208 9.7 16.1 0.00 0.00 0.00 46 1017.7
20260507172631 18 183 9.7 12.9 0.00 0.00 0.00 45 1017.8
20260507171629 18 216 6.4 11.3 0.00 0.00 0.00 44 1017.8
20260507170629 18 196 6.4 8.0 0.00 0.00 0.00 46 1017.8
20260507165646 18 273 11.3 12.9 0.00 0.00 0.00 44 1017.9
20260507164621 18 228 8.0 11.3 0.00 0.00 0.00 45 1017.8
20260507163625 18 263 6.4 9.7 0.00 0.00 0.00 44 1018.0
20260507162619 18 238 9.7 14.5 0.00 0.00 0.00 43 1017.8
20260507161658 17 237 6.4 9.7 0.00 0.00 0.00 43 1017.7
20260507160634 18 267 8.0 12.9 0.00 0.00 0.00 42 1017.7
20260507155632 17 224 6.4 9.7 0.00 0.00 0.00 43 1017.8
20260507154630 17 262 3.2 6.4 0.00 0.00 0.00 45 1017.7
20260507153627 17 249 4.8 8.0 0.00 0.00 0.00 43 1017.6
20260507152650 16 314 6.4 9.7 0.00 0.00 0.00 44 1017.6
20260507151626 16 325 9.7 12.9 0.00 0.00 0.00 46 1017.6
20260507150619 16 327 4.8 6.4 0.00 0.00 0.00 50 1017.3
20260507145617 16 222 4.8 6.4 0.00 0.00 0.00 51 1017.3
20260507144638 16 266 4.8 9.7 0.00 0.00 0.00 54 1017.4
20260507143638 15 266 4.8 8.0 0.00 0.00 0.00 56 1017.3
20260507142629 15 234 4.8 6.4 0.00 0.00 0.00 57 1017.3
20260507141633 15 0.0 0.0 0.00 0.00 0.00 60 1017.3
20260507140625 14 49 4.8 6.4 0.00 0.00 0.00 66 1017.2
20260507135629 13 347 1.6 3.2 0.00 0.00 0.00 66 1017.1
20260507134623 14 333 6.4 6.4 0.00 0.00 0.00 62 1017.0
20260507133620 13 295 1.6 3.2 0.00 0.00 0.00 70 1016.8
20260507132620 12 234 3.2 8.0 0.00 0.00 0.00 71 1016.5
20260507131635 12 230 4.8 4.8 0.00 0.00 0.00 73 1016.7
20260507130655 12 202 4.8 6.4 0.00 0.00 0.00 73 1016.6
20260507125630 12 181 4.8 6.4 0.00 0.00 0.00 73 1016.6
20260507124631 12 200 8.0 11.3 0.00 0.00 0.00 76 1016.4
20260507123629 11 303 4.8 6.4 0.00 0.00 0.00 75 1016.6
20260507122623 11 322 3.2 4.8 0.00 0.00 0.00 73 1016.5
20260507121623 12 220 4.8 6.4 0.00 0.00 0.00 71 1016.3
20260507120621 12 350 3.2 4.8 0.00 0.00 0.00 71 1016.4
20260507115637 12 230 1.6 6.4 0.00 0.00 0.00 70 1016.3
20260507114640 12 209 6.4 11.3 0.00 0.00 0.00 68 1016.0
20260507113637 12 9 1.6 3.2 0.00 0.00 0.00 70 1016.2
20260507112631 12 187 4.8 11.3 0.00 0.00 0.00 67 1016.2
20260507111629 12 229 4.8 6.4 0.00 0.00 0.00 66 1016.5
20260507110629 12 0.0 1.6 0.00 0.00 0.00 68 1016.3
20260507105626 13 16 1.6 3.2 0.00 0.00 0.00 66 1016.4
20260507104641 13 182 3.2 4.8 0.00 0.00 0.00 65 1016.2
20260507103622 13 229 8.0 12.9 0.00 0.00 0.00 66 1016.2
20260507102638 13 200 8.0 14.5 0.00 0.00 0.00 65 1016.2
20260507101633 13 213 3.2 6.4 0.00 0.00 0.00 63 1016.2
20260507100632 13 56 4.8 4.8 0.00 0.00 0.00 64 1016.1
20260507095637 15 227 8.0 9.7 0.00 0.00 0.00 60 1016.0
20260507094636 14 235 6.4 9.7 0.00 0.00 0.00 59 1015.8
20260507093624 15 216 1.6 3.2 0.00 0.00 0.00 58 1016.0
20260507092624 15 207 4.8 6.4 0.00 0.00 0.00 56 1015.9
20260507091622 15 211 8.0 11.3 0.00 0.00 0.00 57 1016.1
20260507090618 15 212 8.0 9.7 0.00 0.00 0.00 56 1016.1
20260507085634 15 246 8.0 9.7 0.00 0.00 0.00 59 1016.0
20260507084637 15 229 9.7 14.5 0.00 0.00 0.00 58 1016.2
20260507083631 15 211 9.7 12.9 0.00 0.00 0.00 60 1016.1
20260507082631 15 210 12.9 19.3 0.00 0.00 0.00 62 1016.0
20260507081629 15 234 9.7 17.7 0.00 0.00 0.00 63 1016.0
20260507080624 15 222 6.4 8.0 0.00 0.00 0.00 62 1016.0
20260507075643 15 223 11.3 20.9 0.00 0.00 0.00 62 1015.9
20260507074623 15 214 12.9 22.5 0.00 0.00 0.00 62 1015.8
20260507073620 16 212 14.5 19.3 0.00 0.00 0.00 61 1015.7
20260507072638 16 226 12.9 24.1 0.00 0.00 0.00 60 1015.8
20260507071632 16 218 12.9 19.3 0.00 0.00 0.00 59 1015.4
20260507070633 16 209 16.1 20.9 0.00 0.00 0.00 57 1015.3
20260507065708 16 211 12.9 20.9 0.00 0.00 0.00 58 1015.3
20260507064627 17 222 14.5 20.9 0.00 0.00 0.00 55 1015.3
20260507063625 17 218 14.5 20.9 0.00 0.00 0.00 54 1015.2
20260507062625 17 222 12.9 16.1 0.00 0.00 0.00 56 1015.4
20260507061621 17 214 14.5 25.7 0.00 0.00 0.00 53 1015.2
20260507060637 17 215 16.1 20.9 0.00 0.00 0.00 52 1015.3
20260507055637 18 222 14.5 20.9 0.00 0.00 0.00 51 1015.1
20260507054631 18 213 9.7 11.3 0.00 0.00 0.00 50 1015.1
20260507053653 18 207 6.4 8.0 0.00 0.00 0.00 48 1015.3
20260507052630 18 211 9.7 14.5 0.00 0.00 0.00 50 1015.2
20260507051628 18 218 8.0 11.3 0.00 0.00 0.00 50 1015.2
20260507050628 18 203 11.3 17.7 0.00 0.00 0.00 50 1015.1
20260507045620 19 227 8.0 11.3 0.00 0.00 0.00 50 1015.1
20260507044622 19 212 9.7 11.3 0.00 0.00 0.00 46 1015.1
20260507043640 20 215 11.3 19.3 0.00 0.00 0.00 42 1014.9
20260507042634 21 223 6.4 9.7 0.00 0.00 0.00 32 1015.0
20260507041635 21 232 8.0 11.3 0.00 0.00 0.00 32 1014.9
20260507040645 21 227 4.8 8.0 0.00 0.00 0.00 32 1014.8
20260507035646 21 215 9.7 14.5 0.00 0.00 0.00 32 1014.7
20260507034629 21 221 6.4 9.7 0.00 0.00 0.00 32 1014.4
20260507033625 22 232 4.8 6.4 0.00 0.00 0.00 31 1014.5
20260507032621 22 252 4.8 8.0 0.00 0.00 0.00 30 1014.6
20260507031618 22 299 8.0 12.9 0.00 0.00 0.00 30 1014.1
20260507030642 23 230 4.8 11.3 0.00 0.00 0.00 32 1014.1
20260507025634 23 228 6.4 12.9 0.00 0.00 0.00 31 1014.1
20260507024633 24 288 4.8 9.7 0.00 0.00 0.00 30 1014.0
20260507023630 24 298 8.0 11.3 0.00 0.00 0.00 29 1013.9
20260507022633 25 298 20.9 27.4 0.00 0.00 0.00 28 1013.6
20260507021630 25 310 9.7 12.9 0.00 0.00 0.00 30 1013.7
20260507020624 24 313 6.4 9.7 0.00 0.00 0.00 33 1013.7
20260507015622 25 337 6.4 11.3 0.00 0.00 0.00 32 1013.6
20260507014617 25 315 11.3 14.5 0.00 0.00 0.00 34 1013.3
20260507013641 26 296 16.1 24.1 0.00 0.00 0.00 30 1013.0
20260507012634 25 264 9.7 22.5 0.00 0.00 0.00 34 1013.2
20260507011653 25 217 8.0 14.5 0.00 0.00 0.00 40 1013.1
20260507010628 25 203 11.3 14.5 0.00 0.00 0.00 41 1013.0
20260507005632 25 206 12.9 20.9 0.00 0.00 0.00 41 1013.0